Temperature
17 17 18 18 18 19 19 19 19 19 18 17 16 16 16 15 14 14 14 13 13 13 13 13 12 12 12 12 12 12 11 11 11 11 11 10 9 8 8 8 7 7 6
17 17 17 17 18 18 18 19 19 18 18 17 17 16 16 15 14 14 14 13 13 13 13 13 12 12 12 12 11 11 11 11 10 10 10 9 8 7 7 7 7 6 6
17 17 17 17 17 17 18 18 18 18 18 17 16 16 15 15 14 14 13 13 13 13 13 12 12 12 11 11 11 11 11 10 10 10 9 8 7 7 7 6 6 5 5
17 17 17 17 17 17 17 17 17 18 17 17 16 16 16 15 15 14 13 13 13 12 12 12 12 11 11 11 11 10 10 10 10 9 8 7 7 6 6 6 5 4 4
17 17 16 16 16 17 17 17 17 17 17 16 16 16 16 15 15 14 13 12 12 12 12 11 11 11 11 10 10 10 10 9 9 8 7 7 6 5 4 4 4 4 3
17 16 16 16 16 16 16 16 16 16 16 15 15 15 15 15 15 14 13 12 12 12 11 11 11 10 10 10 9 9 9 9 8 7 7 6 5 4 3 2 2 2 3
16 16 15 15 15 15 15 15 16 16 15 15 14 14 13 14 15 15 13 12 11 11 11 10 10 10 9 9 9 9 8 8 7 7 6 5 4 3 2 1 1 1 1
15 15 15 14 14 14 14 14 15 14 14 14 13 12 12 13 13 13 13 12 11 11 10 10 10 9 9 8 8 8 7 7 6 6 5 4 4 3 2 1 -0 -1 -1
15 14 14 14 13 13 14 14 14 13 13 12 12 11 11 12 12 12 11 11 11 10 10 9 9 8 8 8 7 7 7 6 5 5 4 3 3 2 1 0 -1 -3 -4
14 14 13 13 13 13 13 13 13 13 12 11 11 11 11 11 11 11 11 11 10 10 9 8 8 8 7 7 7 6 6 5 4 4 3 3 2 1 0 -0 -1 -3 -4
13 13 12 12 12 12 12 12 12 11 11 10 10 10 10 10 10 10 10 10 9 9 8 8 7 7 7 6 6 5 5 4 3 3 2 2 1 0 -1 -1 -2 -3 -5
12 12 11 11 11 11 11 11 11 10 10 9 9 9 9 9 10 9 9 8 8 7 7 7 7 6 6 5 5 4 4 3 2 2 1 1 -0 -1 -2 -3 -4 -5 -5
11 11 10 10 10 9 9 9 9 9 9 8 8 8 8 9 9 9 8 7 7 7 6 6 6 5 5 4 4 3 3 2 2 1 0 -0 -1 -2 -3 -4 -5 -6 -6
10 9 9 9 8 8 8 8 8 8 7 7 7 7 7 7 8 7 6 6 6 6 6 5 5 5 4 4 3 3 2 1 1 0 -1 -1 -2 -3 -4 -5 -6 -7 -7
8 8 8 8 7 7 7 7 6 6 6 6 6 6 6 6 6 5 5 5 5 5 5 5 4 4 3 3 2 2 1 1 0 -0 -1 -2 -3 -4 -5 -6 -7 -7 -8
7 7 7 6 6 6 6 5 5 5 4 4 4 4 4 4 4 5 5 5 5 4 4 4 3 3 2 2 1 1 0 -0 -1 -1 -2 -3 -4 -5 -6 -7 -7 -8 -8
6 6 5 5 4 4 4 4 3 3 3 2 2 2 3 4 4 4 4 4 4 4 3 3 2 2 1 1 0 -0 -1 -1 -2 -2 -4 -5 -5 -6 -7 -8 -8 -8 -9
4 4 4 3 3 3 3 2 2 1 1 1 1 2 3 3 4 4 4 3 3 3 2 2 1 1 0 0 -0 -1 -2 -2 -3 -4 -5 -6 -7 -7 -8 -8 -8 -8 -8
3 3 2 2 1 1 1 0 -0 -0 -0 -0 1 2 3 3 3 3 3 2 2 2 1 1 0 -0 -1 -1 -2 -2 -3 -3 -4 -5 -6 -7 -8 -8 -8 -8 -8 -9 -8
1 1 1 0 -0 -0 -1 -1 -1 -1 -0 0 1 2 3 3 3 2 2 2 1 1 0 -0 -0 -1 -2 -2 -3 -4 -4 -5 -6 -6 -7 -7 -8 -8 -8 -9 -9 -9 -9
-0 -0 -0 -1 -1 -1 -1 -1 -1 -1 0 1 1 2 2 2 2 2 1 1 0 0 -0 -1 -1 -2 -3 -4 -4 -6 -7 -7 -8 -8 -8 -8 -9 -9 -9 -9 -9 -9 -9
-1 -1 -1 -2 -2 -1 -1 -1 -0 0 1 1 2 2 2 1 1 1 0 0 -0 -1 -1 -2 -3 -3 -4 -5 -6 -7 -8 -8 -9 -9 -9 -9 -9 -9 -9 -9 -9 -9 -9
-1 -1 -1 -1 -1 -1 0 1 1 1 2 2 2 1 1 1 0 0 -0 -1 -1 -1 -2 -3 -4 -4 -5 -6 -7 -7 -8 -8 -9 -9 -9 -9 -9 -9 -9 -9 -10 -10 -9
-1 -1 -1 -1 -0 0 1 2 1 1 2 2 1 1 0 0 -0 -1 -1 -1 -2 -2 -3 -4 -4 -5 -6 -7 -7 -8 -8 -8 -9 -9 -9 -9 -9 -9 -10 -9 -9 -9 -9
-0 0 0 1 1 1 1 1 1 1 1 1 1 0 -0 -0 -1 -1 -2 -2 -3 -4 -4 -5 -6 -6 -7 -8 -9 -9 -9 -10 -10 -10 -10 -9 -9 -9 -9 -9 -9 -9 -9
1 1 1 2 1 1 1 1 1 1 1 1 0 -0 -1 -1 -2 -2 -3 -3 -4 -5 -5 -6 -7 -8 -8 -9 -9 -9 -10 -10 -10 -10 -10 -10 -10 -9 -9 -9 -9 -8 -9
Wind_Speed
13 12 12 11 11 11 11 11 12 13 10 9 10 9 8 5 5 5 8 12 13 14 11 7 7 7 6 6 7 6 5 3 3 2 2 1 2 2 3 2 1 3 5
15 14 13 13 13 12 11 11 10 12 12 10 10 7 6 5 4 5 6 10 12 13 11 9 8 8 7 7 6 6 4 2 3 2 1 2 2 2 3 3 3 2 1
15 14 13 14 13 13 12 10 11 11 12 11 9 8 7 5 4 5 5 7 11 12 11 10 9 8 7 7 6 5 5 3 2 4 3 2 1 3 3 3 2 2 1
13 12 12 12 12 13 12 12 11 11 11 14 14 15 10 7 6 6 6 8 9 10 12 11 10 9 8 8 6 6 4 4 3 2 2 2 3 1 4 4 2 1 2
10 9 9 9 9 9 10 11 11 10 11 14 16 15 10 7 9 10 11 9 8 9 11 12 10 10 8 8 7 6 4 3 3 3 1 1 1 2 2 4 5 4 4
5 5 5 6 7 7 7 8 10 10 11 13 15 14 14 14 16 14 13 10 8 8 9 11 10 9 8 8 7 6 6 4 4 3 2 1 1 0 1 4 4 5 5
3 4 4 4 5 6 6 7 8 9 11 13 14 13 14 16 18 17 15 14 11 10 10 10 10 9 8 7 6 6 5 5 4 2 1 1 0 0 1 3 4 5 4
4 4 5 5 5 6 6 7 8 8 10 12 12 12 14 13 12 13 13 13 11 10 10 10 11 10 9 8 6 5 4 4 3 2 1 0 1 1 1 2 3 5 4
5 4 4 5 6 6 6 7 9 9 11 11 12 13 13 13 13 13 12 11 11 12 12 12 12 10 8 7 6 4 4 4 2 2 1 1 2 2 2 2 2 4 5
4 3 2 4 5 6 5 5 8 9 11 12 12 12 12 13 14 14 14 13 14 13 14 13 12 10 8 7 5 4 4 3 1 2 1 2 2 2 2 3 3 4 7
3 2 2 3 4 5 3 3 6 9 11 12 13 14 13 14 14 14 14 14 13 14 13 13 11 9 8 6 5 4 4 2 1 2 3 3 3 3 3 3 4 5 6
4 2 2 2 3 3 1 3 6 10 12 14 15 14 14 14 15 15 14 14 14 13 12 11 10 9 7 5 4 3 2 2 2 3 3 4 3 3 4 4 5 5 6
7 3 2 0 0 1 1 4 9 12 14 15 15 14 14 14 15 16 15 14 13 12 11 10 9 8 7 5 4 3 1 2 3 3 4 4 4 5 4 5 5 5 8
8 4 2 2 3 3 3 7 11 13 14 14 14 14 14 15 16 15 14 13 13 12 11 10 9 7 6 5 4 3 3 4 4 4 5 5 5 6 6 5 6 7 7
8 4 3 5 6 7 8 11 12 12 13 13 14 14 14 15 16 15 14 13 12 12 11 10 8 6 4 4 5 4 5 5 6 6 6 5 7 10 9 8 6 7 7
3 3 5 7 8 9 10 11 11 11 12 13 14 15 16 16 16 15 14 14 12 11 9 8 7 5 4 6 4 4 4 6 7 7 7 6 7 11 15 17 17 15 12
1 6 8 8 8 9 11 11 11 11 13 14 15 15 17 17 16 15 14 13 11 9 8 6 5 4 5 4 3 6 5 6 7 8 7 6 7 11 6 12 17 16 21
5 8 9 9 10 10 11 11 12 13 14 14 15 15 16 16 15 14 13 11 8 7 6 5 4 3 3 3 3 7 6 7 7 7 7 6 6 8 11 8 8 8 11
10 10 11 11 11 11 12 14 14 14 14 15 15 15 15 15 14 13 11 8 7 6 5 3 2 2 2 2 3 7 4 6 7 7 7 9 8 16 19 11 9 11 11
11 11 12 12 12 12 13 15 15 15 15 15 14 14 14 14 13 11 9 7 6 5 4 2 1 1 1 1 5 8 3 5 6 6 7 14 16 19 20 12 11 14 12
12 12 13 12 12 12 13 15 15 14 14 14 15 14 13 12 11 9 7 6 5 3 2 1 1 1 1 3 6 9 4 4 5 6 6 8 19 21 23 21 12 16 17
12 12 12 13 12 12 14 15 15 14 14 14 15 13 12 10 9 8 6 5 4 3 3 3 3 3 3 5 7 11 12 12 7 7 6 9 21 23 24 18 18 22 19
11 11 13 14 13 11 12 16 14 13 14 14 14 12 11 9 8 7 6 4 4 4 4 4 3 4 4 6 11 12 16 18 10 9 16 20 23 22 14 16 20 16 8
11 11 13 15 14 12 12 13 12 12 14 14 11 10 9 8 7 6 5 4 4 5 4 4 4 4 5 5 5 5 8 12 11 9 14 19 20 15 14 13 11 8 8
10 11 12 14 14 13 12 11 11 12 13 12 9 8 7 6 6 5 4 5 4 4 3 2 3 4 5 8 15 12 8 8 10 11 6 6 7 6 7 7 7 7 8
11 12 13 14 13 12 12 10 9 10 12 10 8 6 5 5 5 4 3 3 2 2 3 3 5 5 8 14 16 17 17 18 18 11 6 7 7 8 9 10 11 10 10
Wind_Direction
248 246 244 244 243 234 221 207 187 183 182 178 175 178 182 169 150 150 145 143 140 138 135 134 130 131 131 136 132 123 105 52 354 358 335 288 213 193 163 159 159 194 199
242 240 237 236 239 241 232 217 201 185 183 180 174 167 151 124 106 112 116 127 132 133 137 135 135 131 126 118 115 118 116 85 31 52 17 357 325 294 220 183 201 224 200
244 243 238 234 232 234 235 225 211 196 182 166 146 125 100 85 91 102 103 109 124 130 134 133 130 127 123 122 119 119 126 141 80 59 89 109 284 322 310 249 217 197 239
239 240 242 241 234 229 226 224 214 200 180 162 157 159 166 162 161 141 125 119 123 130 133 133 130 126 122 123 122 112 114 126 136 110 68 110 124 92 316 319 314 325 306
232 237 239 243 246 240 227 216 208 197 174 164 162 166 164 140 132 130 131 128 130 132 134 134 129 127 124 120 118 116 108 106 122 124 118 114 111 188 206 280 302 319 312
235 247 257 258 255 252 241 215 196 186 167 161 161 165 159 147 146 148 148 143 142 138 135 131 127 122 121 121 121 119 113 102 97 92 94 104 127 301 243 271 294 296 289
302 300 295 289 278 262 238 210 190 176 161 158 161 165 157 154 157 157 155 151 151 148 144 137 130 125 121 120 121 121 123 117 115 112 89 59 20 298 276 277 287 291 296
291 306 311 304 286 270 242 202 187 172 161 159 160 156 148 153 157 155 155 154 152 148 141 134 127 125 125 128 126 126 134 125 135 153 135 111 289 283 259 260 293 303 289
249 271 296 308 307 290 253 205 185 170 163 158 148 145 145 146 147 147 145 144 143 143 138 131 128 128 128 131 139 141 141 139 160 171 173 224 252 253 256 259 249 260 287
229 238 282 311 304 294 269 211 183 168 157 148 142 141 137 138 140 142 143 143 143 141 136 130 130 128 127 131 129 125 123 127 170 159 192 266 265 272 269 264 263 253 270
290 325 334 328 312 302 276 202 170 150 139 132 128 129 130 133 136 138 138 139 138 136 133 131 129 129 131 131 130 136 136 166 244 241 234 253 263 269 275 280 277 270 269
280 306 318 330 333 317 280 163 141 131 125 122 123 125 128 131 133 133 133 134 132 129 127 126 124 125 122 119 122 127 139 215 256 271 276 278 283 282 277 273 271 273 274
279 281 282 244 189 295 260 128 120 117 117 120 123 127 131 132 132 131 130 129 125 120 117 114 115 113 108 99 86 72 24 307 283 273 267 270 277 278 274 277 280 282 290
275 264 241 155 141 135 113 107 107 110 115 120 126 131 133 132 129 126 124 120 117 113 108 105 104 104 103 97 71 36 348 316 301 289 272 261 256 259 264 276 273 279 282
270 237 170 124 117 108 97 99 103 108 117 123 128 129 127 124 121 118 115 112 109 106 104 103 100 97 102 87 60 18 342 330 316 304 290 278 281 288 289 287 275 281 282
276 156 124 116 114 110 107 106 107 112 119 125 126 124 123 119 116 113 110 106 103 101 101 104 107 107 102 91 47 355 333 322 312 303 297 296 297 298 302 304 304 302 300
12 115 112 109 106 107 111 112 113 115 119 121 122 121 119 116 113 112 108 106 105 104 105 108 114 113 118 108 28 340 331 307 294 290 291 296 298 308 300 296 299 299 299
92 99 99 97 98 102 106 108 112 115 117 117 117 115 114 111 109 108 105 104 106 108 109 107 98 97 141 123 16 340 336 307 298 298 297 295 292 293 299 287 289 283 291
81 88 93 98 100 103 109 111 111 112 113 114 113 113 112 110 108 106 104 105 105 101 100 98 85 61 107 118 2 343 325 309 310 314 319 319 303 304 309 311 302 297 293
77 86 92 96 99 102 108 112 112 111 111 111 110 109 108 108 106 105 102 98 100 104 103 92 46 32 48 359 343 336 322 313 312 312 312 314 312 310 314 312 303 303 301
84 91 96 97 100 105 109 110 109 109 111 110 106 102 100 101 101 99 96 94 90 86 80 61 354 5 19 352 329 326 322 296 298 300 299 301 311 312 312 311 304 301 305
96 100 103 102 101 104 110 110 109 111 109 105 101 97 94 95 96 94 87 84 76 57 42 26 15 14 16 349 323 324 328 327 319 309 302 305 313 313 313 313 308 308 313
102 106 109 108 107 108 114 112 112 112 108 102 99 96 92 89 90 89 80 66 60 53 36 23 14 357 359 344 344 341 332 327 323 311 315 316 316 316 313 310 313 318 314
101 106 107 106 103 103 104 107 109 108 104 100 98 96 95 89 81 78 67 57 57 49 33 21 8 354 345 338 343 331 319 319 316 308 310 316 315 315 316 318 318 312 302
99 102 105 105 103 102 99 98 102 104 100 96 93 89 86 89 82 77 73 70 77 77 41 7 356 344 327 322 328 328 319 315 308 314 310 309 310 317 318 314 309 308 309
102 102 102 103 101 98 94 89 92 99 101 97 89 84 81 74 68 64 59 73 72 35 356 338 331 324 324 327 330 326 324 324 323 327 322 317 319 318 317 316 315 313 311
Height
1450 1451 1452 1454 1456 1459 1461 1464 1466 1468 1472 1475 1477 1480 1483 1486 1490 1493 1495 1498 1500 1503 1506 1508 1511 1513 1515 1516 1517 1518 1519 1519 1518 1517 1515 1514 1513 1512 1512 1511 1511 1510 1509
1442 1444 1445 1447 1448 1450 1453 1456 1459 1461 1464 1467 1470 1474 1477 1481 1484 1487 1489 1492 1495 1498 1502 1504 1507 1509 1511 1513 1514 1515 1516 1516 1515 1514 1513 1512 1512 1510 1509 1509 1508 1508 1506
1434 1436 1438 1439 1441 1443 1446 1449 1452 1455 1458 1461 1464 1468 1471 1474 1477 1480 1483 1486 1490 1494 1498 1501 1503 1506 1508 1510 1511 1512 1513 1513 1512 1512 1512 1510 1509 1508 1507 1506 1505 1505 1503
1427 1429 1431 1433 1434 1436 1439 1442 1446 1449 1452 1454 1455 1459 1462 1465 1468 1472 1476 1481 1485 1490 1493 1497 1499 1502 1504 1506 1508 1509 1509 1510 1509 1508 1508 1508 1507 1506 1504 1503 1502 1501 1499
1422 1423 1425 1426 1428 1430 1432 1435 1438 1442 1444 1446 1448 1453 1457 1460 1463 1467 1471 1476 1481 1485 1489 1492 1495 1498 1501 1503 1505 1505 1506 1506 1506 1505 1504 1503 1503 1502 1501 1498 1498 1497 1495
1418 1419 1420 1421 1422 1424 1426 1428 1430 1434 1437 1439 1442 1446 1450 1453 1456 1460 1465 1470 1475 1480 1484 1488 1491 1494 1497 1499 1501 1502 1503 1503 1502 1501 1501 1500 1500 1499 1498 1495 1492 1489 1487
1416 1417 1417 1418 1418 1419 1420 1422 1424 1427 1430 1434 1437 1441 1444 1447 1451 1455 1459 1464 1469 1474 1479 1483 1487 1490 1493 1496 1498 1499 1500 1499 1499 1498 1497 1497 1496 1495 1494 1492 1488 1483 1479
1413 1414 1415 1415 1415 1415 1415 1416 1418 1421 1425 1429 1433 1437 1440 1443 1446 1451 1455 1460 1465 1470 1475 1480 1484 1487 1490 1493 1495 1496 1496 1496 1495 1494 1494 1493 1492 1491 1489 1487 1484 1478 1473
1410 1411 1411 1412 1411 1411 1411 1412 1414 1416 1420 1424 1429 1432 1436 1439 1442 1447 1452 1457 1462 1467 1471 1476 1481 1485 1488 1490 1492 1493 1492 1492 1491 1491 1490 1489 1488 1486 1485 1483 1480 1478 1470
1406 1407 1407 1407 1407 1407 1407 1407 1409 1412 1415 1420 1424 1428 1431 1435 1439 1444 1448 1454 1459 1464 1469 1474 1479 1483 1485 1487 1489 1489 1489 1488 1488 1487 1486 1485 1483 1482 1480 1478 1475 1473 1468
1403 1403 1403 1403 1402 1402 1402 1403 1405 1408 1412 1416 1419 1424 1428 1432 1437 1441 1446 1452 1457 1462 1468 1473 1477 1480 1483 1485 1486 1486 1485 1485 1484 1483 1482 1480 1478 1477 1475 1472 1470 1467 1464
1399 1399 1398 1398 1398 1398 1398 1400 1402 1405 1408 1412 1416 1421 1425 1430 1434 1439 1445 1451 1456 1462 1467 1472 1476 1479 1481 1482 1482 1482 1482 1481 1480 1479 1477 1476 1474 1471 1469 1466 1463 1461 1458
1395 1394 1394 1393 1394 1394 1396 1397 1399 1402 1405 1409 1414 1419 1423 1428 1433 1438 1445 1451 1456 1462 1467 1471 1474 1477 1478 1479 1479 1479 1479 1478 1476 1475 1473 1471 1468 1466 1463 1460 1457 1454 1451
1390 1389 1389 1389 1389 1391 1394 1396 1397 1400 1403 1408 1413 1418 1423 1427 1432 1438 1445 1451 1457 1462 1466 1470 1473 1475 1476 1476 1476 1476 1475 1474 1472 1470 1468 1466 1463 1460 1457 1454 1451 1448 1445
1385 1385 1385 1385 1387 1389 1393 1395 1397 1400 1404 1409 1413 1417 1422 1427 1433 1439 1446 1452 1458 1462 1466 1470 1472 1473 1474 1474 1473 1472 1471 1470 1468 1466 1463 1461 1458 1455 1453 1450 1446 1443 1439
1381 1382 1383 1384 1386 1389 1392 1395 1398 1402 1406 1410 1414 1418 1422 1428 1434 1441 1448 1453 1459 1463 1466 1469 1470 1471 1471 1471 1470 1469 1467 1465 1463 1460 1458 1455 1453 1450 1447 1445 1442 1439 1435
1381 1382 1383 1385 1387 1390 1393 1396 1400 1404 1408 1412 1415 1419 1424 1430 1437 1444 1450 1455 1460 1463 1466 1467 1468 1468 1468 1467 1466 1464 1462 1460 1458 1455 1452 1449 1447 1444 1441 1438 1435 1432 1429
1382 1383 1384 1387 1389 1392 1395 1399 1403 1406 1410 1414 1418 1422 1428 1434 1440 1447 1452 1457 1460 1463 1465 1466 1466 1466 1465 1464 1462 1460 1458 1455 1453 1450 1447 1444 1441 1439 1436 1432 1429 1425 1422
1384 1385 1387 1389 1392 1395 1398 1401 1405 1409 1413 1417 1422 1427 1433 1438 1444 1449 1454 1457 1460 1462 1463 1464 1464 1463 1462 1460 1458 1455 1452 1450 1447 1445 1442 1440 1436 1433 1431 1427 1422 1417 1413
1388 1389 1390 1392 1395 1399 1402 1405 1409 1413 1417 1422 1426 1432 1438 1443 1448 1452 1455 1458 1460 1461 1462 1462 1461 1460 1458 1456 1454 1451 1448 1445 1442 1439 1437 1434 1431 1428 1425 1421 1416 1411 1406
1392 1393 1394 1397 1400 1403 1406 1409 1413 1418 1422 1427 1432 1437 1442 1447 1450 1454 1456 1458 1459 1460 1460 1459 1459 1457 1455 1453 1451 1448 1444 1441 1437 1434 1431 1428 1425 1423 1420 1416 1411 1406 1402
1398 1399 1400 1402 1406 1409 1411 1414 1418 1423 1428 1433 1437 1442 1446 1449 1452 1455 1456 1457 1458 1458 1458 1457 1456 1454 1452 1450 1447 1444 1442 1438 1434 1430 1426 1423 1420 1417 1414 1410 1405 1402 1397
1404 1405 1406 1408 1412 1416 1419 1420 1425 1430 1434 1438 1442 1446 1449 1451 1454 1455 1456 1456 1456 1456 1455 1454 1452 1450 1448 1446 1443 1440 1437 1433 1430 1426 1422 1419 1415 1412 1408 1404 1401 1397 1392
1410 1411 1413 1414 1418 1422 1426 1428 1432 1436 1440 1442 1445 1448 1451 1453 1454 1455 1455 1455 1455 1454 1452 1451 1449 1447 1444 1441 1438 1435 1432 1428 1425 1421 1417 1414 1410 1407 1403 1400 1396 1392 1388
1415 1417 1418 1420 1424 1428 1431 1435 1438 1441 1443 1446 1448 1450 1452 1453 1454 1455 1454 1454 1453 1452 1450 1448 1446 1443 1440 1438 1435 1432 1427 1424 1421 1417 1413 1409 1405 1402 1398 1395 1391 1387 1383
1419 1421 1423 1426 1429 1432 1436 1439 1443 1445 1447 1448 1450 1452 1453 1454 1454 1454 1453 1452 1451 1450 1447 1445 1443 1440 1438 1434 1431 1428 1424 1421 1417 1414 1409 1406 1402 1398 1394 1390 1386 1383 1378